Location: Aranbee
(34.0885°N, 118.2342°W)
Time: 14:03:19
(UTC+00:00)

Tiros 1 - Pass Details

Date: 30 November 2020
Orbit: 630 x 663 km, 48.4° (Epoch: 21 January)

Event Time Altitude Azimuth Distance (km) Brightness Sun altitude
Rises 21:59:25 0° 236° (WSW) 2,980 11.7 25.2°
Reaches altitude 10° 22:01:46 10° 239° (WSW) 2,071 11.1 24.9°
Maximum altitude 22:06:33 71° 324° (NW) 700 7.7 24.4°
Drops below altitude 10° 22:11:21 10° 48° (NE) 2,077 9.3 23.8°
Sets 22:13:42 0° 51° (NE) 2,989 10.0 23.4°
